Location: Kellogg
(38.0159°N, 90.0546°W)
Time: 13:01:15
(UTC+00:00)

Transit 2A - Pass Details

Date: 22 September 2024
Orbit: 590 x 960 km, 66.7° (Epoch: 11 October)

Event Time Altitude Azimuth Distance (km) Brightness Sun altitude
Rises 07:32:05 0° 335° (NNW) 3,616 9.8 -45.6°
Enters shadow 07:33:01 - 336° (NNW) 3,272 9.5 -45.5°
Reaches altitude 10° 07:34:46 10° 339° (NNW) 2,639 - -45.3°
Maximum altitude 07:40:50 57° 58° (ENE) 1,034 - -44.5°
Drops below altitude 10° 07:46:22 10° 136° (SE) 2,416 - -43.8°
Sets 07:48:44 0° 141° (SE) 3,288 - -43.5°
